When you browse on this site, cookies collect data to enhance your experience and personalize the content and advertising you see.
Visit our Privacy Policy to learn more. By continuing to use the site, you agree to this use of cookies and data.
  • In Austria
  • List of Countries
  • For 7 days
  • Water Temperature
  • Weather Map
  • News
  • Weather Widgets
  • user-avatar
    Login

    Hourly Weather Zatyshne

    Today, 20 November, Wednesday

    Time Temperature Precipitation Wind Pressure Humidity
    00:00 +3°C° 0 mm 3 mps 753 mmHg 88%
    01:00 +3°C° 0 mm 3 mps 753 mmHg 87%
    02:00 +2°C° 0 mm 3 mps 753 mmHg 83%
    03:00 +2°C° 0 mm 3 mps 753 mmHg 83%
    04:00 +2°C° 0 mm 3 mps 753 mmHg 83%
    05:00 +2°C° 0 mm 3 mps 753 mmHg 82%
    06:00 +2°C° 0 mm 3 mps 754 mmHg 81%
    07:00 +1°C° 0 mm 4 mps 754 mmHg 80%
    08:00 +3°C° 0 mm 4 mps 754 mmHg 78%
    09:00 +3°C° 0 mm 4 mps 754 mmHg 77%
    10:00 +3°C° 0 mm 4 mps 754 mmHg 75%
    11:00 +2°C° 0 mm 5 mps 754 mmHg 73%
    12:00 +2°C° 0 mm 5 mps 754 mmHg 71%
    13:00 +2°C° 0 mm 5 mps 754 mmHg 69%
    14:00 +2°C° 0 mm 6 mps 754 mmHg 66%
    15:00 +2°C° 0 mm 6 mps 754 mmHg 63%
    16:00 +2°C° 0 mm 6 mps 755 mmHg 59%
    17:00 +1°C° 0 mm 6 mps 755 mmHg 55%
    18:00 +1°C° 0 mm 6 mps 755 mmHg 59%
    19:00 0°C° 0 mm 7 mps 755 mmHg 63%
    20:00 0°C° 0 mm 8 mps 756 mmHg 67%
    21:00 -1°C° 0 mm 8 mps 756 mmHg 67%
    22:00 -1°C° 0 mm 8 mps 756 mmHg 68%
    23:00 -2°C° 0 mm 8 mps 756 mmHg 68%

    Tomorrow, 21 November, Thursday

    Time Temperature Precipitation Wind Pressure Humidity
    00:00 -4°C° 0 mm 8 mps 757 mmHg 67%
    01:00 -5°C° 0 mm 8 mps 757 mmHg 66%
    02:00 -6°C° 0 mm 8 mps 758 mmHg 65%
    03:00 -6°C° 0 mm 8 mps 758 mmHg 63%
    04:00 -8°C° 0 mm 9 mps 758 mmHg 61%
    05:00 -9°C° 0 mm 9 mps 758 mmHg 58%
    06:00 -9°C° 0 mm 9 mps 758 mmHg 56%
    07:00 -9°C° 0 mm 9 mps 759 mmHg 54%
    08:00 -10°C° 0 mm 9 mps 759 mmHg 52%
    09:00 -9°C° 0 mm 10 mps 759 mmHg 48%
    10:00 -8°C° 0 mm 10 mps 759 mmHg 44%
    11:00 -8°C° 0 mm 10 mps 759 mmHg 40%
    12:00 -7°C° 0 mm 10 mps 759 mmHg 38%
    13:00 -7°C° 0 mm 10 mps 759 mmHg 36%
    14:00 -6°C° 0 mm 9 mps 759 mmHg 34%
    15:00 -8°C° 0 mm 9 mps 759 mmHg 34%
    16:00 -9°C° 0 mm 9 mps 759 mmHg 33%
    17:00 -10°C° 0 mm 9 mps 759 mmHg 33%
    18:00 -10°C° 0 mm 9 mps 759 mmHg 33%
    19:00 -11°C° 0 mm 9 mps 759 mmHg 34%
    20:00 -11°C° 0 mm 9 mps 759 mmHg 35%
    21:00 -12°C° 0 mm 9 mps 759 mmHg 35%
    22:00 -12°C° 0 mm 9 mps 759 mmHg 35%
    23:00 -12°C° 0 mm 9 mps 759 mmHg 35%

    Day after tomorrow, 22 November, Friday

    Time Temperature Precipitation Wind Pressure Humidity
    00:00 -12°C° 0 mm 9 mps 759 mmHg 36%
    01:00 -12°C° 0 mm 9 mps 759 mmHg 36%
    02:00 -14°C° 0 mm 9 mps 759 mmHg 36%
    03:00 -14°C° 0 mm 9 mps 759 mmHg 36%
    04:00 -14°C° 0 mm 9 mps 759 mmHg 37%
    05:00 -14°C° 0 mm 9 mps 758 mmHg 37%
    06:00 -14°C° 0 mm 9 mps 759 mmHg 39%
    07:00 -12°C° 0 mm 9 mps 759 mmHg 41%
    08:00 -13°C° 0 mm 10 mps 759 mmHg 43%
    09:00 -12°C° 0 mm 10 mps 759 mmHg 41%
    10:00 -9°C° 0 mm 10 mps 759 mmHg 39%
    11:00 -8°C° 0 mm 10 mps 758 mmHg 37%
    12:00 -7°C° 0 mm 10 mps 758 mmHg 34%
    13:00 -7°C° 0 mm 10 mps 758 mmHg 32%
    14:00 -5°C° 0 mm 10 mps 758 mmHg 30%
    15:00 -6°C° 0 mm 9 mps 758 mmHg 32%
    16:00 -8°C° 0 mm 9 mps 758 mmHg 35%
    17:00 -8°C° 0 mm 8 mps 757 mmHg 37%
    18:00 -8°C° 0 mm 8 mps 758 mmHg 38%
    19:00 -10°C° 0 mm 9 mps 758 mmHg 40%
    20:00 -10°C° 0 mm 9 mps 758 mmHg 41%
    21:00 -10°C° 0 mm 9 mps 758 mmHg 42%
    22:00 -10°C° 0 mm 8 mps 757 mmHg 43%
    23:00 -11°C° 0 mm 8 mps 757 mmHg 44%

    23 November, Saturday

    Time Temperature Precipitation Wind Pressure Humidity
    00:00 -11°C° 0 mm 8 mps 757 mmHg 45%
    01:00 -11°C° 0 mm 8 mps 757 mmHg 45%
    02:00 -11°C° 0 mm 8 mps 757 mmHg 46%
    03:00 -11°C° 0 mm 8 mps 757 mmHg 46%
    04:00 -11°C° 0 mm 8 mps 757 mmHg 46%
    05:00 -11°C° 0 mm 8 mps 757 mmHg 46%
    06:00 -11°C° 0 mm 8 mps 757 mmHg 46%
    07:00 -11°C° 0 mm 9 mps 757 mmHg 46%
    08:00 -10°C° 0 mm 9 mps 757 mmHg 46%
    09:00 -9°C° 0 mm 9 mps 757 mmHg 43%
    10:00 -6°C° 0 mm 9 mps 757 mmHg 39%
    11:00 -5°C° 0 mm 9 mps 756 mmHg 35%
    12:00 -4°C° 0 mm 9 mps 756 mmHg 33%
    13:00 -4°C° 0 mm 9 mps 756 mmHg 30%
    14:00 -4°C° 0 mm 9 mps 755 mmHg 28%
    15:00 -5°C° 0 mm 8 mps 755 mmHg 29%
    16:00 -6°C° 0 mm 8 mps 755 mmHg 30%
    17:00 -7°C° 0 mm 7 mps 755 mmHg 31%
    18:00 -7°C° 0 mm 7 mps 755 mmHg 33%
    19:00 -7°C° 0 mm 7 mps 755 mmHg 34%
    20:00 -8°C° 0 mm 7 mps 755 mmHg 36%
    21:00 -8°C° 0 mm 7 mps 755 mmHg 38%
    22:00 -8°C° 0 mm 7 mps 755 mmHg 40%
    23:00 -8°C° 0 mm 7 mps 755 mmHg 43%

    24 November, Sunday

    Time Temperature Precipitation Wind Pressure Humidity
    00:00 -8°C° 0 mm 7 mps 755 mmHg 46%
    01:00 -8°C° 0 mm 7 mps 755 mmHg 49%
    02:00 -8°C° 0 mm 7 mps 754 mmHg 52%
    03:00 -9°C° 0 mm 7 mps 754 mmHg 54%
    04:00 -9°C° 0 mm 7 mps 754 mmHg 56%
    05:00 -9°C° 0 mm 7 mps 754 mmHg 58%
    06:00 -8°C° 0 mm 7 mps 754 mmHg 60%
    07:00 -8°C° 0 mm 8 mps 754 mmHg 61%
    08:00 -8°C° 0 mm 8 mps 754 mmHg 62%
    09:00 -6°C° 0 mm 8 mps 754 mmHg 60%
    10:00 -5°C° 0 mm 8 mps 754 mmHg 57%
    11:00 -2°C° 0 mm 8 mps 754 mmHg 55%
    12:00 -2°C° 0 mm 8 mps 753 mmHg 54%
    13:00 -2°C° 0 mm 8 mps 753 mmHg 53%
    14:00 -1°C° 0 mm 8 mps 752 mmHg 53%
    15:00 -2°C° 0 mm 7 mps 752 mmHg 55%
    16:00 -3°C° 0 mm 7 mps 752 mmHg 58%
    17:00 -3°C° 0 mm 7 mps 753 mmHg 61%
    18:00 -4°C° 0 mm 7 mps 752 mmHg 60%
    19:00 -4°C° 0 mm 7 mps 752 mmHg 60%
    20:00 -4°C° 0 mm 7 mps 752 mmHg 60%
    21:00 -6°C° 0 mm 7 mps 752 mmHg 62%
    22:00 -6°C° 0 mm 7 mps 752 mmHg 64%
    23:00 -6°C° 0 mm 7 mps 752 mmHg 66%

    25 November, Monday

    Time Temperature Precipitation Wind Pressure Humidity
    00:00 -6°C° 0 mm 6 mps 752 mmHg 68%
    01:00 -6°C° 0 mm 6 mps 751 mmHg 69%
    02:00 -6°C° 0 mm 6 mps 751 mmHg 71%
    03:00 -6°C° 0 mm 6 mps 751 mmHg 73%
    04:00 -6°C° 0 mm 6 mps 751 mmHg 75%
    05:00 -6°C° 0 mm 6 mps 751 mmHg 77%
    06:00 -6°C° 0 mm 6 mps 751 mmHg 78%
    07:00 -6°C° 0 mm 7 mps 751 mmHg 79%
    08:00 -6°C° 0 mm 7 mps 751 mmHg 79%
    09:00 -4°C° 0 mm 7 mps 751 mmHg 77%
    10:00 -3°C° 0 mm 7 mps 751 mmHg 74%
    11:00 -2°C° 0 mm 7 mps 750 mmHg 71%
    12:00 -1°C° 0 mm 7 mps 750 mmHg 69%
    13:00 0°C° 0 mm 7 mps 750 mmHg 68%
    14:00 +2°C° 0 mm 7 mps 749 mmHg 66%
    15:00 +1°C° 0 mm 6 mps 749 mmHg 70%
    16:00 +1°C° 0 mm 6 mps 749 mmHg 74%
    17:00 -1°C° 0 mm 6 mps 749 mmHg 77%
    18:00 -1°C° 0 mm 6 mps 749 mmHg 77%
    19:00 -1°C° 0 mm 7 mps 749 mmHg 77%
    20:00 -1°C° 0 mm 7 mps 749 mmHg 78%
    21:00 -2°C° 0 mm 7 mps 749 mmHg 76%
    22:00 -2°C° 0 mm 7 mps 749 mmHg 75%
    23:00 -2°C° 0 mm 7 mps 748 mmHg 73%
    Show more